sat.trackr.live / text

‹ back to catalog

STARLINK-31749

NORAD 59631 · 2024-082A

PAYLOAD ACTIVE UNKNOWN

§ Identity

Operator
Country
US
Launch date
2024-05-03
Launch site
AFETR
Launch vehicle
Mass (kg)
RCS (m²)

Purposes: comms

External: N2YO · Heavens-Above · Gunter

§ Orbital elements

Epoch: 2026-09-20T23:38:02.628096Z

Period
94.27 min
Inclination
43.0042°
Eccentricity
0.0001105
Mean motion
15.27572003 rev/d
Perigee alt
482.3 km
Apogee alt
483.8 km
Semi-major
6,861.2 km
B*
-8.4637e-5
RAAN
116.5555°
Arg perigee
269.7175°
Mean anomaly
90.3550°
Rev number
13,488

§ Raw data

STARLINK-317491 59631U 24082A   26263.98475264 -.00002590  00000+0 -84637-4 0  99932 59631  43.0042 116.5555 0001105 269.7175  90.3550 15.27572003134889

JSON: /api/v1/satellites/59631 · /tle

For live sub-satellite position, see the globe view (requires WebGL).

§ Visibility from observer

Set your observer location to see the next 7 days of passes ≥ 10°. The values pass through the URL so the page stays shareable.

No JS? Fill the form by hand. The geolocation button needs JavaScript.